Time,TemperatureF,DewpointF,PressureIn,WindDirection,WindDirectionDegrees,WindSpeedMPH,WindSpeedGustMPH,Humidity,HourlyPrecipIn,Conditions,Clouds,dailyrainin,SoftwareType,DateUTC
2013-02-11 00:14:00,46.8,46.3,30.05,ENE,67,0.0,-999.0,98,-99.99,,,0.01,Acu-Link.com,2013-02-11 05:14:00,
2013-02-11 00:29:00,46.9,46.4,30.04,NE,45,0.0,-999.0,98,-99.99,,,0.01,Acu-Link.com,2013-02-11 05:29:00,
2013-02-11 00:44:00,46.9,46.4,30.04,NE,45,2.2,-999.0,98,-99.99,,,0.01,Acu-Link.com,2013-02-11 05:44:00,
2013-02-11 00:59:00,46.9,46.4,30.04,ENE,67,0.0,-999.0,98,-99.99,,,0.01,Acu-Link.com,2013-02-11 05:59:00,
2013-02-11 01:15:00,46.9,46.4,30.04,West,270,0.0,-999.0,98,-99.99,,,0.01,Acu-Link.com,2013-02-11 06:15:00,
2013-02-11 01:30:00,47.1,46.6,30.01,South,180,0.0,-999.0,98,-99.99,,,0.01,Acu-Link.com,2013-02-11 06:30:00,
2013-02-11 01:45:00,47.1,46.6,30.02,WNW,292,0.0,-999.0,98,-99.99,,,0.01,Acu-Link.com,2013-02-11 06:45:00,
2013-02-11 02:00:00,47.3,46.8,30.03,SW,225,0.0,-999.0,98,-99.99,,,0.01,Acu-Link.com,2013-02-11 07:00:00,
2013-02-11 02:15:00,47.3,46.8,30.02,WSW,247,0.0,-999.0,98,-99.99,,,0.01,Acu-Link.com,2013-02-11 07:15:00,
2013-02-11 02:30:00,47.3,46.8,30.02,WSW,247,0.0,-999.0,98,-99.99,,,0.01,Acu-Link.com,2013-02-11 07:30:00,
2013-02-11 02:45:00,47.3,46.8,30.01,West,270,0.0,-999.0,98,-99.99,,,0.01,Acu-Link.com,2013-02-11 07:45:00,
2013-02-11 03:00:00,47.5,47.0,29.98,ENE,67,0.0,-999.0,98,-99.99,,,0.01,Acu-Link.com,2013-02-11 08:00:00,
2013-02-11 03:15:00,47.7,47.2,29.98,ESE,112,0.0,-999.0,98,-99.99,,,0.03,Acu-Link.com,2013-02-11 08:15:00,
2013-02-11 03:30:00,47.8,47.3,29.99,SSW,202,0.0,-999.0,98,-99.99,,,0.03,Acu-Link.com,2013-02-11 08:30:00,
2013-02-11 03:46:00,47.8,47.3,29.99,West,270,0.0,-999.0,98,-99.99,,,0.03,Acu-Link.com,2013-02-11 08:46:00,
2013-02-11 04:01:00,47.8,47.3,29.98,SE,135,0.0,-999.0,98,-99.99,,,0.04,Acu-Link.com,2013-02-11 09:01:00,
2013-02-11 04:17:00,47.8,47.3,29.98,ESE,112,0.0,-999.0,98,-99.99,,,0.04,Acu-Link.com,2013-02-11 09:17:00,
2013-02-11 04:32:00,47.8,47.3,29.97,South,180,0.0,-999.0,98,-99.99,,,0.04,Acu-Link.com,2013-02-11 09:32:00,
2013-02-11 04:47:00,48.0,47.5,29.99,SSW,202,0.0,-999.0,98,-99.99,,,0.04,Acu-Link.com,2013-02-11 09:47:00,
2013-02-11 05:02:00,48.0,47.5,29.98,SSW,202,0.0,-999.0,98,-99.99,,,0.05,Acu-Link.com,2013-02-11 10:02:00,
2013-02-11 05:18:00,48.0,47.5,29.98,WSW,247,0.0,-999.0,98,-99.99,,,0.06,Acu-Link.com,2013-02-11 10:18:00,
2013-02-11 05:33:00,48.0,47.5,29.98,SSE,157,0.0,-999.0,98,-99.99,,,0.08,Acu-Link.com,2013-02-11 10:33:00,
2013-02-11 05:48:00,48.0,47.5,29.98,SSE,157,0.0,-999.0,98,-99.99,,,0.09,Acu-Link.com,2013-02-11 10:48:00,
2013-02-11 06:03:00,48.2,47.7,29.97,SW,225,0.0,-999.0,98,-99.99,,,0.11,Acu-Link.com,2013-02-11 11:03:00,
2013-02-11 06:18:00,48.2,47.7,29.97,SSE,157,0.0,-999.0,98,-99.99,,,0.12,Acu-Link.com,2013-02-11 11:18:00,
2013-02-11 06:33:00,48.2,47.7,29.97,SSW,202,0.0,-999.0,98,-99.99,,,0.15,Acu-Link.com,2013-02-11 11:33:00,
2013-02-11 06:48:00,48.4,47.9,29.95,ENE,67,0.0,-999.0,98,-99.99,,,0.16,Acu-Link.com,2013-02-11 11:48:00,
2013-02-11 07:04:00,48.4,47.9,29.94,ENE,67,0.0,-999.0,98,-99.99,,,0.16,Acu-Link.com,2013-02-11 12:04:00,
2013-02-11 07:19:00,48.6,48.1,29.96,West,270,0.0,-999.0,98,-99.99,,,0.16,Acu-Link.com,2013-02-11 12:19:00,
2013-02-11 07:34:00,48.6,48.1,29.97,West,270,0.0,-999.0,98,-99.99,,,0.17,Acu-Link.com,2013-02-11 12:34:00,
2013-02-11 07:49:00,48.7,48.2,29.99,West,270,0.0,-999.0,98,-99.99,,,0.17,Acu-Link.com,2013-02-11 12:49:00,
2013-02-11 08:04:00,48.9,48.4,29.98,ESE,112,0.0,-999.0,98,-99.99,,,0.18,Acu-Link.com,2013-02-11 13:04:00,
2013-02-11 08:19:00,49.1,48.6,29.98,South,180,0.0,-999.0,98,-99.99,,,0.18,Acu-Link.com,2013-02-11 13:19:00,
2013-02-11 08:35:00,49.3,48.8,29.97,South,180,0.0,-999.0,98,-99.99,,,0.19,Acu-Link.com,2013-02-11 13:35:00,
2013-02-11 08:50:00,49.8,49.3,29.98,SW,225,0.0,-999.0,98,-99.99,,,0.20,Acu-Link.com,2013-02-11 13:50:00,
2013-02-11 09:05:00,50.2,49.7,29.98,SE,135,0.0,-999.0,98,-99.99,,,0.20,Acu-Link.com,2013-02-11 14:05:00,
2013-02-11 09:20:00,50.7,50.2,29.97,East,90,0.0,-999.0,98,-99.99,,,0.20,Acu-Link.com,2013-02-11 14:20:00,
2013-02-11 09:35:00,51.3,50.8,29.96,ENE,67,0.0,-999.0,98,-99.99,,,0.20,Acu-Link.com,2013-02-11 14:35:00,
2013-02-11 09:50:00,52.2,51.7,29.96,ENE,67,0.0,-999.0,98,-99.99,,,0.21,Acu-Link.com,2013-02-11 14:50:00,
2013-02-11 10:05:00,53.2,52.6,29.96,ESE,112,0.0,-999.0,98,-99.99,,,0.21,Acu-Link.com,2013-02-11 15:05:00,
2013-02-11 10:20:00,53.8,53.2,29.96,SW,225,0.0,-999.0,98,-99.99,,,0.21,Acu-Link.com,2013-02-11 15:20:00,
2013-02-11 10:35:00,54.1,53.5,29.97,SW,225,0.0,-999.0,98,-99.99,,,0.21,Acu-Link.com,2013-02-11 15:35:00,
2013-02-11 10:51:00,54.0,53.4,29.98,West,270,0.0,-999.0,98,-99.99,,,0.21,Acu-Link.com,2013-02-11 15:51:00,
2013-02-11 11:06:00,54.1,53.5,29.98,West,270,0.0,-999.0,98,-99.99,,,0.22,Acu-Link.com,2013-02-11 16:06:00,
2013-02-11 11:21:00,53.8,53.2,29.97,SE,135,0.0,-999.0,98,-99.99,,,0.22,Acu-Link.com,2013-02-11 16:21:00,
2013-02-11 11:36:00,53.8,53.2,29.98,SW,225,0.0,-999.0,98,-99.99,,,0.22,Acu-Link.com,2013-02-11 16:36:00,
2013-02-11 11:51:00,54.0,53.4,29.98,SSW,202,0.0,-999.0,98,-99.99,,,0.23,Acu-Link.com,2013-02-11 16:51:00,
2013-02-11 12:06:00,54.3,53.7,29.96,SE,135,0.0,-999.0,98,-99.99,,,0.23,Acu-Link.com,2013-02-11 17:06:00,
2013-02-11 12:21:00,54.5,53.9,29.96,SSW,202,1.7,-999.0,98,-99.99,,,0.23,Acu-Link.com,2013-02-11 17:21:00,
2013-02-11 12:37:00,54.9,54.3,29.96,SW,225,0.0,-999.0,98,-99.99,,,0.23,Acu-Link.com,2013-02-11 17:37:00,
2013-02-11 12:52:00,55.4,54.8,29.97,SSW,202,0.0,-999.0,98,-99.99,,,0.23,Acu-Link.com,2013-02-11 17:52:00,
2013-02-11 13:07:00,55.6,55.0,29.95,West,270,0.0,-999.0,98,-99.99,,,0.23,Acu-Link.com,2013-02-11 18:07:00,
2013-02-11 13:22:00,55.8,55.2,29.95,SW,225,0.0,-999.0,98,-99.99,,,0.23,Acu-Link.com,2013-02-11 18:22:00,
2013-02-11 13:37:00,55.8,55.2,29.97,West,270,0.0,-999.0,98,-99.99,,,0.23,Acu-Link.com,2013-02-11 18:37:00,
2013-02-11 13:52:00,56.1,55.5,29.95,SW,225,0.0,-999.0,98,-99.99,,,0.23,Acu-Link.com,2013-02-11 18:52:00,
2013-02-11 14:07:00,56.8,56.2,29.94,West,270,0.0,-999.0,98,-99.99,,,0.23,Acu-Link.com,2013-02-11 19:07:00,
2013-02-11 14:23:00,57.0,56.4,29.92,West,270,0.0,-999.0,98,-99.99,,,0.23,Acu-Link.com,2013-02-11 19:23:00,
2013-02-11 14:38:00,57.2,56.6,29.93,SSW,202,0.0,-999.0,98,-99.99,,,0.23,Acu-Link.com,2013-02-11 19:38:00,
2013-02-11 14:53:00,57.4,56.8,29.92,SSW,202,0.0,-999.0,98,-99.99,,,0.23,Acu-Link.com,2013-02-11 19:53:00,
2013-02-11 15:08:00,57.6,57.0,29.92,West,270,0.0,-999.0,98,-99.99,,,0.23,Acu-Link.com,2013-02-11 20:08:00,
2013-02-11 15:23:00,56.8,56.2,29.93,SW,225,0.0,-999.0,98,-99.99,,,0.23,Acu-Link.com,2013-02-11 20:23:00,
2013-02-11 15:38:00,56.7,56.1,29.92,SW,225,0.0,-999.0,98,-99.99,,,0.23,Acu-Link.com,2013-02-11 20:38:00,
2013-02-11 15:53:00,56.7,56.1,29.92,NW,315,1.1,-999.0,98,-99.99,,,0.23,Acu-Link.com,2013-02-11 20:53:00,
2013-02-11 16:08:00,56.7,56.1,29.89,NE,45,1.7,-999.0,98,-99.99,,,0.23,Acu-Link.com,2013-02-11 21:08:00,
2013-02-11 16:23:00,56.5,55.9,29.89,WNW,292,0.0,-999.0,98,-99.99,,,0.23,Acu-Link.com,2013-02-11 21:23:00,
2013-02-11 16:39:00,56.3,55.7,29.90,NW,315,0.0,-999.0,98,-99.99,,,0.23,Acu-Link.com,2013-02-11 21:39:00,
2013-02-11 16:54:00,56.3,55.7,29.91,West,270,2.2,-999.0,98,-99.99,,,0.23,Acu-Link.com,2013-02-11 21:54:00,
2013-02-11 17:09:00,55.9,55.3,29.92,NE,45,1.1,-999.0,98,-99.99,,,0.23,Acu-Link.com,2013-02-11 22:09:00,
2013-02-11 17:24:00,55.6,55.0,29.92,West,270,2.7,-999.0,98,-99.99,,,0.23,Acu-Link.com,2013-02-11 22:24:00,
2013-02-11 17:39:00,55.0,54.4,29.89,ESE,112,0.0,-999.0,98,-99.99,,,0.23,Acu-Link.com,2013-02-11 22:39:00,
2013-02-11 17:54:00,54.7,54.1,29.91,East,90,1.1,-999.0,98,-99.99,,,0.23,Acu-Link.com,2013-02-11 22:54:00,
2013-02-11 18:10:00,54.1,53.5,29.93,South,180,0.0,-999.0,98,-99.99,,,0.23,Acu-Link.com,2013-02-11 23:10:00,
2013-02-11 18:25:00,53.8,53.2,29.91,NW,315,0.0,-999.0,98,-99.99,,,0.23,Acu-Link.com,2013-02-11 23:25:00,
2013-02-11 18:40:00,53.2,52.6,29.93,NW,315,0.0,-999.0,98,-99.99,,,0.23,Acu-Link.com,2013-02-11 23:40:00,
2013-02-11 18:55:00,52.9,52.4,29.94,NW,315,0.0,-999.0,98,-99.99,,,0.23,Acu-Link.com,2013-02-11 23:55:00,
2013-02-11 19:10:00,52.5,52.0,29.93,West,270,0.0,-999.0,98,-99.99,,,0.23,Acu-Link.com,2013-02-12 00:10:00,
2013-02-11 19:25:00,52.3,51.8,29.94,NW,315,0.0,-999.0,98,-99.99,,,0.23,Acu-Link.com,2013-02-12 00:25:00,
2013-02-11 19:40:00,51.8,51.3,29.94,ENE,67,0.0,-999.0,98,-99.99,,,0.23,Acu-Link.com,2013-02-12 00:40:00,
2013-02-11 19:55:00,51.3,50.8,29.93,WNW,292,0.0,-999.0,98,-99.99,,,0.23,Acu-Link.com,2013-02-12 00:55:00,
2013-02-11 20:10:00,51.3,50.8,29.94,NNW,337,0.0,-999.0,98,-99.99,,,0.23,Acu-Link.com,2013-02-12 01:10:00,
2013-02-11 20:26:00,50.9,50.4,29.94,NW,315,0.0,-999.0,98,-99.99,,,0.23,Acu-Link.com,2013-02-12 01:26:00,
2013-02-11 20:41:00,50.5,50.0,29.93,WNW,292,0.0,-999.0,98,-99.99,,,0.23,Acu-Link.com,2013-02-12 01:41:00,
2013-02-11 20:56:00,50.2,49.7,29.94,ENE,67,0.0,-999.0,98,-99.99,,,0.23,Acu-Link.com,2013-02-12 01:56:00,
2013-02-11 21:11:00,49.6,49.1,29.94,WSW,247,0.0,-999.0,98,-99.99,,,0.23,Acu-Link.com,2013-02-12 02:11:00,
2013-02-11 21:26:00,49.1,48.6,29.94,SE,135,0.0,-999.0,98,-99.99,,,0.23,Acu-Link.com,2013-02-12 02:26:00,
2013-02-11 21:41:00,48.7,48.2,29.94,West,270,0.0,-999.0,98,-99.99,,,0.23,Acu-Link.com,2013-02-12 02:41:00,
2013-02-11 21:56:00,48.4,47.9,29.92,NW,315,0.0,-999.0,98,-99.99,,,0.23,Acu-Link.com,2013-02-12 02:56:00,
2013-02-11 22:11:00,48.0,47.5,29.91,ESE,112,0.0,-999.0,98,-99.99,,,0.23,Acu-Link.com,2013-02-12 03:11:00,
2013-02-11 22:26:00,47.8,47.3,29.92,West,270,0.0,-999.0,98,-99.99,,,0.23,Acu-Link.com,2013-02-12 03:26:00,
2013-02-11 22:41:00,47.5,47.0,29.93,SSE,157,0.0,-999.0,98,-99.99,,,0.23,Acu-Link.com,2013-02-12 03:41:00,
2013-02-11 22:57:00,47.1,46.6,29.91,ESE,112,0.0,-999.0,98,-99.99,,,0.23,Acu-Link.com,2013-02-12 03:57:00,
2013-02-11 23:12:00,46.9,46.4,29.92,SSW,202,0.0,-999.0,98,-99.99,,,0.23,Acu-Link.com,2013-02-12 04:12:00,
2013-02-11 23:27:00,46.6,46.1,29.93,West,270,0.0,-999.0,98,-99.99,,,0.23,Acu-Link.com,2013-02-12 04:27:00,
2013-02-11 23:42:00,46.6,46.1,29.93,South,180,0.0,-999.0,98,-99.99,,,0.23,Acu-Link.com,2013-02-12 04:42:00,
2013-02-11 23:57:00,46.6,46.1,29.93,ESE,112,0.0,-999.0,98,-99.99,,,0.23,Acu-Link.com,2013-02-12 04:57:00,